Location: Vihti�l�
(61.3833°N, 23.0667°E)
Time: 05:38:42
(UTC+00:00)

USA 290 - Pass Details

Date: 29 November 2020
Orbit: 399 x 412 km, 73.6° (Epoch: 27 December)

Event Time Altitude Azimuth Distance (km) Brightness Sun altitude
Exits shadow 04:34:58 26° 343° (NNW) 858 3.5 -16.6°
Maximum altitude 04:36:31 53° 49° (NE) 522 2.9 -16.4°
Drops below altitude 10° 04:39:45 10° 128° (SE) 1,494 6.1 -16.1°
Sets 04:41:49 0° 133° (SE) 2,353 7.2 -15.8°
